832  
ASUS45 KBOU 071410  
RWRCO  
 
WEATHER ROUNDUP FOR COLORADO  
NATIONAL WEATHER SERVICE DENVER/BOULDER CO  
800 AM MDT THU JUL 07 2022  
 
NOTE: "FAIR" INDICATES FEW OR NO CLOUDS BELOW 12000 FEET WITH NO  
SIGNIFICANT WEATHER AND/OR S TO VISIBILITY
.  
 
COZ001>005-013-030-031-071500-   
..NORTHWEST COLORADO
 
 
 
CITY SKY/WX TMP DP RH WIND PRES REMARKS
 
CRAIG FAIR 62 50 64 VRB3 30.27S  
HAYDEN FAIR 60 48 64 E9 30.32R  
MEEKER FAIR 58 46 64 CALM 30.29R  
RANGELY FAIR 68 49 51 E5 30.20S  
RABBIT EARS PA FAIR 52 37 58 CALM 30.57S  
STEAMBOAT SPGS FAIR 55 49 80 CALM 30.32R  
WALDEN PTSUNNY 54 45 71 CALM 30.41R  

 
 
COZ006>008-011-071500-   
..WEST CENTRAL VALLEYS
 
 
 
CITY SKY/WX TMP DP RH WIND PRES REMARKS
 
GRAND JUNCTION FAIR 70 49 47 E15 30.19R  
MONTROSE FAIR 59 49 69 SE6 30.27R  
EAGLE FAIR 55 47 74 CALM 30.37S  
RIFLE PTSUNNY 58 50 75 E5 30.27R  
DELTA RAIN 61 47 59 CALM 30.26R  
NUCLA NOT AVBL  

 
 
COZ017>023-064>068-071500-   
..SOUTHWEST COLORADO
 
 
 
CITY SKY/WX TMP DP RH WIND PRES REMARKS
 
DURANGO FAIR 61 45 55 CALM 30.32R  
CORTEZ FAIR 64 51 62 E3 30.26R  
PAGOSA SPRINGS FAIR 58 46 62 CALM 30.40R  
TELLURIDE FAIR 54 41 62 SE5 30.50S  
WOLF CREEK PAS FAIR 46 39 76 SW8 30.72R  

 
 
COZ009-010-012-014-032>034-037-058>063-071500-   
..CENTRAL COLORADO
 
 
 
CITY SKY/WX TMP DP RH WIND PRES REMARKS
 
ASPEN FAIR 56 42 59 CALM 30.38S  
BUENA VISTA N/A 56 44 64 W5 30.40S  
COPPER MTN FAIR 50 39 66 W3 30.68R  
BERTHOUD PASS N/A 41 34 75 NW9G18 30.68R  
DAKOTA HILL FAIR 48 37 66 NW13G22 30.56R  
COTTONWOOD PAS FAIR 57 N/A N/A E6 30.51R  
GUNNISON NOT AVBL  
GRANBY FAIR 53 27 36 CALM 30.43S  
KREMMLING FAIR 54 48 82 CALM 30.41S  
LEADVILLE FAIR 53 42 66 N3 30.52S  
MONARCH PASS FAIR 45 32 61 W14 30.76R  
SALIDA FAIR 58 45 62 NW8 30.45S  
SUNLIGHT PTSUNNY 52 34 50 S3 30.61R  
WILKERSON PASS FAIR 52 34 50 NW12G20 30.62R  

 
 
COZ069>075-071500-   
..SAN LUIS VALLEY/SANGRE DE CRISTO MOUNTAINS
 
 
 
CITY SKY/WX TMP DP RH WIND PRES REMARKS
 
ALAMOSA FAIR 57 50 77 N6 30.39R  
DEL NORTE FAIR 56 44 62 NW7 30.42R  
LA VETA PASS FAIR 50 41 71 W12 30.50R  
SAGUACHE N/A 55 43 62 W12 30.41S  

 
 
COZ035-036-038>040-071500-   
..NORTHERN COLORADO FRONT RANGE
 
 
 
CITY SKY/WX TMP DP RH WIND PRES REMARKS
 
DENVER INTL AP FAIR 67 57 70 VRB7 30.16R  
AURORA MOSUNNY 68 54 60 SW6 30.18S  
WATKINS NOT AVBL  
ERIE FAIR 62 61 97 CALM 30.15S  
BOULDER FAIR 64 59 82 CALM 30.16R  
CENTENNIAL FAIR 69 51 52 W7 30.19R  
BROOMFIELD MOSUNNY 66 57 72 CALM 30.19R  
FORT COLLINS FAIR 66 59 78 S3 30.15R  
LONGMONT FAIR 64 61 88 CALM 30.17S  

 
 
COZ041-046-047-076>085-087-088-071500-   
..PIKES PEAK/PALMER DIVIDE AND SOUTHERN FOOTHILLS
 
 
 
CITY SKY/WX TMP DP RH WIND PRES REMARKS
 
COLO. SPRINGS FAIR 69 57 65 NW5 30.22S  
A. F. ACADEMY SUNNY 67 53 59 N3 30.22R  
SCHRIEVER AFB NOT AVBL  
CHEYENNE MTN NOT AVBL  
ELLICOTT FAIR 66 59 79 N6 30.22S  
FALCON FAIR 69 47 45 NW8G16 30.27S  
FORT CARSON FAIR 64 58 81 NW7 30.17F  
LIMON FAIR 68 59 73 W8 30.15R  
MONUMENT HILL FAIR 64 18 16 W8 30.29S  
CANON CITY FAIR 72 52 49 W20 30.17S  
WALSENBURG NOT AVBL  
TRINIDAD FAIR 65 57 75 W10 30.20R  

 
 
COZ042>045-048>051-090-091-071500-   
..NORTHEAST COLORADO
 
 
 
CITY SKY/WX TMP DP RH WIND PRES REMARKS
 
GREELEY FAIR 67 60 78 W5 30.13S  
AKRON FAIR 66 60 81 W12 30.11R  
BURLINGTON FAIR 69 61 75 N8 30.10R  
WRAY FAIR 72 59 64 NW7 30.08R  
YUMA FAIR 66 37 34 NW5 30.09R  
STERLING FAIR 68 61 77 CALM 30.08R  
HOLYOKE FAIR 75 63 64 NW10 30.07R  
FORT MORGAN FAIR 66 63 88 W8 30.11R  

 
 
COZ086-089-092>099-071500-   
..SOUTHEAST COLORADO
 
 
 
CITY SKY/WX TMP DP RH WIND PRES REMARKS
 
PUEBLO FAIR 69 62 78 VRB3 30.13S  
LA JUNTA FAIR 68 62 81 W13 30.10S  
LAMAR N/A 71 64 78 W7 30.06R  
SPRINGFIELD NOT AVBL  

 
 
 
CLICK HERE TO GO TO PREVIOUS BULLETINS.

The Nexlab CO Page Main Text Page